[[{"header":{"parameterUnit":"m.s-1","parameterCategory":2,"la1":30.2991,"la2":30.254,"lo1":-89.0895,"lo2":-89.0444,"dy":0.0017,"dx":0.0017,"nx":28,"ny":28,"refTime":"2025-12-31T09:00:00:Z","depth":"0","parameterNumber":2,"parameterNumberName":"U-component_of_CURRENTS"},"data":[0,0,0,0,0,0,0,0,0,0,0,0,0,0,0,0,0,0,0,0,0,0,0,0,0,0,0,0,0,0,0,0,0,0,0,0,0,0,0,0,0,0,0,0,0,0,0,0,0,0,0,0,0,0,0,0,0,0,0.3266,0.3267,0,0.3347,0.3348,0.3349,0.3347,0.3346,0.3345,0.3344,0.3355,0.3356,0.3357,0,0,0,0,0,0,0,0,0,0,0,0,0,0.3107,0.3109,0.3265,0.3267,0.3268,0.3347,0.3348,0.3349,0.3347,0.3346,0.3345,0.3344,0.3355,0.3356,0.3357,0,0,0,0,0,0,0,0,0,0,0,0,0,0.3178,0.311,0.3265,0.3279,0.3282,0.3347,0.3348,0.3349,0.3347,0.3346,0.3345,0.3344,0.3355,0.3356,0.3358,0.3391,0,0,0.3362,0.3363,0,0,0,0,0,0,0,0,0.3174,0.3183,0.3276,0.3278,0.3281,0.3339,0.3296,0.3361,0.3347,0.3319,0.3344,0.3343,0.3346,0.3348,0.3363,0.3392,0.3392,0.3362,0.3363,0.3364,0.3365,0,0,0,0,0,0,0,0.3169,0.318,0.3294,0.3277,0.3281,0.3281,0.329,0.3308,0.3334,0.3321,0.3322,0.3337,0.3347,0.3361,0.3363,0.3392,0.3362,0.3364,0.3365,0.3365,0.3436,0.3437,0,0,0,0,0,0,0.3168,0.3175,0.3292,0.3297,0.3227,0.3285,0.3295,0.3319,0.3336,0.3339,0.3338,0.3337,0.3359,0.3361,0.3363,0.3395,0.3364,0.3366,0.3366,0.3435,0.3437,0.3438,0,0,0,0,0,0,0.3164,0.3178,0.3289,0.324,0.3254,0.329,0.3316,0.3321,0.3339,0.335,0.335,0.3351,0.3358,0.3361,0.3383,0.3395,0.3366,0.3368,0.3434,0.3436,0.3437,0.3464,0,0,0,0,0,0,0.3159,0.3176,0.3188,0.324,0.3257,0.333,0.3318,0.3323,0.3351,0.335,0.3362,0.3361,0.3358,0.3381,0.3384,0.3397,0.3369,0.3433,0.3435,0.3437,0.3462,0.3467,0.347,0,0,0,0,0,0.3153,0.3176,0.3189,0.3203,0.3275,0.3331,0.334,0.3358,0.3353,0.3367,0.3373,0.3361,0.3394,0.3383,0.3387,0.34,0.3432,0.3434,0.3437,0.3461,0.3466,0.347,0,0,0,0,0,0,0.3104,0.318,0.3194,0.3236,0.3282,0.3332,0.3349,0.3365,0.3384,0.338,0.338,0.3381,0.3404,0.3403,0.3391,0.3427,0.341,0.3413,0.3426,0.3431,0.3435,0.3421,0.337,0,0,0,0,0,0.3104,0.3147,0.3209,0.3243,0.3267,0.331,0.3333,0.3353,0.3381,0.3388,0.3398,0.3406,0.3419,0.3424,0.3438,0.3462,0.3461,0.3472,0.3476,0.3479,0.3471,0.3479,0.3482,0.3445,0.3445,0.3445,0,0,0.3094,0.3142,0.3164,0.3236,0.3271,0.3315,0.332,0.3364,0.3393,0.3387,0.3418,0.3425,0.3431,0.3454,0.3464,0.3452,0.3495,0.3482,0.3485,0.3474,0.3481,0.3485,0.3488,0.3446,0.3446,0.3446,0,0,0.3097,0.3139,0.3175,0.3221,0.3285,0.3319,0.3334,0.3392,0.3405,0.3444,0.3443,0.3454,0.3483,0.3484,0.3488,0.3523,0.3519,0.3533,0.3538,0.3547,0.355,0.3552,0.3578,0.3582,0.3531,0.3531,0.3531,0,0.3076,0.3135,0.319,0.3237,0.3268,0.3322,0.3356,0.3393,0.3447,0.3448,0.3454,0.3485,0.3492,0.3507,0.352,0.353,0.3542,0.3519,0.3551,0.3553,0.3555,0.358,0.3584,0.3533,0.3533,0.3532,0.3532,0,0.311,0.3156,0.3181,0.326,0.3299,0.3342,0.3402,0.3429,0.345,0.3475,0.3497,0.3516,0.3522,0.3537,0.3541,0.3561,0.357,0.3558,0.3536,0.356,0.3586,0.359,0.3535,0.3535,0.3534,0.3534,0,0,0.3054,0.3179,0.3184,0.3208,0.3312,0.3334,0.3391,0.3434,0.3449,0.3493,0.3505,0.3534,0.3536,0.3541,0.3553,0.3566,0.3603,0.3572,0.3571,0.3591,0.3641,0.3622,0.3625,0.36,0.3601,0.3601,0.3661,0,0.3054,0.3121,0.3196,0.3243,0.3273,0.334,0.338,0.3424,0.3467,0.3497,0.3513,0.3541,0.3544,0.3554,0.3566,0.3601,0.3611,0.3588,0.3618,0.3619,0.3594,0.3628,0.3516,0.3558,0.3665,0.3666,0.3666,0,0.3049,0.3095,0.3139,0.321,0.3227,0.3263,0.3306,0.3357,0.3424,0.3463,0.3495,0.3526,0.3564,0.3561,0.3612,0.3602,0.3617,0.3637,0.364,0.3609,0.3607,0.3547,0.3561,0.3509,0.3672,0.3672,0.3671,0,0.2943,0.3042,0.3062,0.3093,0.3193,0.32,0.3245,0.3319,0.3365,0.3445,0.3484,0.3532,0.357,0.3593,0.365,0.3633,0.3711,0.3686,0.3678,0.3679,0.358,0.357,0.3535,0.3698,0.3698,0.3697,0.3697,0,0.2901,0.2913,0.3005,0.3014,0.3027,0.3114,0.3141,0.3207,0.3308,0.3352,0.3449,0.3499,0.3581,0.364,0.3663,0.3701,0.3719,0.3684,0.3689,0.359,0.3581,0.3527,0.3504,0.37,0.3699,0.3699,0.3698,0,0.2792,0.2859,0.2882,0.2961,0.2983,0.2983,0.3097,0.3117,0.3237,0.3305,0.3336,0.3493,0.3578,0.3656,0.3727,0.3723,0.3667,0.3756,0.3651,0.3641,0.3554,0.3538,0.3376,0.3271,0.3742,0.3742,0.3742,0,0.2749,0.2751,0.282,0.2825,0.2862,0.2895,0.2919,0.3059,0.3107,0.3285,0.3303,0.3445,0.3526,0.3663,0.3703,0.3756,0.3653,0.3661,0.3587,0.3538,0.3524,0.3393,0.3305,0.3482,0.348,0.3478,0.3477,0,0.2664,0.2686,0.2703,0.272,0.2735,0.2765,0.2817,0.2863,0.3013,0.3098,0.3217,0.331,0.348,0.3521,0.363,0.3639,0.3503,0.3623,0.3585,0.3327,0.3165,0.3071,0.3478,0.346,0.3462,0.3463,0.3464,0.3465,0.259,0.2578,0.2597,0.2599,0.2616,0.2616,0.261,0.2696,0.2774,0.2889,0.3052,0.3156,0.3333,0.3486,0.3479,0.3438,0.3394,0.3345,0.3338,0.3216,0.3069,0.3455,0.3433,0.3434,0.3435,0.3437,0.3438,0,0.2481,0.2476,0.2478,0.2472,0.244,0.2488,0.2518,0.2506,0.2548,0.2717,0.2825,0.2998,0.3093,0.3211,0.3277,0.3185,0.3025,0.3105,0.2892,0.2825,0.319,0.3136,0.3032,0.3032,0.3032,0.3032,0.3032,0.3032,0.2419,0.237,0.237,0.2289,0.2283,0.2208,0.2197,0.222,0.2312,0.2419,0.2526,0.2675,0.2978,0.3173,0.3131,0.3042,0.2805,0.2685,0.2666,0.2959,0.298,0.3,0.2943,0.28,0.28,0.2173,0.2168,0.2165]},{"header":{"parameterUnit":"m.s-1","parameterCategory":2,"la1":30.2991,"la2":30.254,"lo1":-89.0895,"lo2":-89.0444,"dy":0.0017,"dx":0.0017,"nx":28,"ny":28,"refTime":"2025-12-31T09:00:00:Z","depth":"0","parameterNumber":3,"parameterNumberName":"V-component_of_CURRENTS"},"data":[0,0,0,0,0,0,0,0,0,0,0,0,0,0,0,0,0,0,0,0,0,0,0,0,0,0,0,0,0,0,0,0,0,0,0,0,0,0,0,0,0,0,0,0,0,0,0,0,0,0,0,0,0,0,0,0,0,0,-0.0138,-0.0139,0,-0.0228,-0.0229,-0.023,-0.029,-0.0291,-0.0291,-0.0291,-0.0371,-0.0373,-0.0375,0,0,0,0,0,0,0,0,0,0,0,0,0,-0.0076,-0.0077,-0.0138,-0.0139,-0.014,-0.0227,-0.0229,-0.023,-0.029,-0.0291,-0.0291,-0.0291,-0.0371,-0.0373,-0.0375,0,0,0,0,0,0,0,0,0,0,0,0,0,-0.013,-0.0077,-0.0138,-0.0179,-0.0183,-0.0227,-0.0229,-0.0231,-0.029,-0.0291,-0.0291,-0.0291,-0.037,-0.0373,-0.0376,-0.0387,0,0,-0.0384,-0.0386,0,0,0,0,0,0,0,0,-0.0127,-0.0132,-0.0172,-0.0176,-0.0181,-0.0246,-0.0237,-0.0282,-0.029,-0.0252,-0.0291,-0.0291,-0.0327,-0.0333,-0.0353,-0.039,-0.0394,-0.0385,-0.0386,-0.0388,-0.0388,0,0,0,0,0,0,0,-0.0123,-0.0129,-0.0176,-0.0173,-0.0178,-0.0212,-0.022,-0.0246,-0.0288,-0.0255,-0.0259,-0.0266,-0.033,-0.035,-0.0355,-0.0395,-0.0385,-0.0387,-0.0389,-0.039,-0.0428,-0.0427,0,0,0,0,0,0,-0.0104,-0.0125,-0.0173,-0.0178,-0.0152,-0.0213,-0.0221,-0.0227,-0.0288,-0.0297,-0.0265,-0.0268,-0.0345,-0.0351,-0.0358,-0.0344,-0.0388,-0.039,-0.0392,-0.0428,-0.0428,-0.0427,0,0,0,0,0,0,-0.0103,-0.0108,-0.0169,-0.0152,-0.0162,-0.0213,-0.0219,-0.0228,-0.0243,-0.0295,-0.0305,-0.0269,-0.0345,-0.0354,-0.0373,-0.0349,-0.0392,-0.0394,-0.0429,-0.0428,-0.0427,-0.0335,0,0,0,0,0,0,-0.01,-0.0106,-0.0103,-0.0151,-0.0162,-0.0179,-0.0218,-0.023,-0.0246,-0.025,-0.0302,-0.031,-0.0346,-0.0368,-0.0376,-0.0353,-0.0397,-0.043,-0.0429,-0.0428,-0.0339,-0.0331,-0.0324,0,0,0,0,0,-0.0098,-0.0082,-0.0102,-0.0108,-0.0156,-0.0178,-0.0187,-0.0226,-0.0245,-0.0243,-0.0281,-0.0308,-0.0365,-0.037,-0.0379,-0.0357,-0.0431,-0.0429,-0.0428,-0.0343,-0.0333,-0.0325,0,0,0,0,0,0,-0.0048,-0.0088,-0.0111,-0.0108,-0.0136,-0.0187,-0.0187,-0.0217,-0.0247,-0.0249,-0.0303,-0.0313,-0.0323,-0.0352,-0.0357,-0.0364,-0.0401,-0.0401,-0.0333,-0.0324,-0.0317,-0.0288,-0.0399,0,0,0,0,0,-0.0036,-0.004,-0.0082,-0.008,-0.0088,-0.0138,-0.0152,-0.0177,-0.021,-0.0225,-0.0264,-0.0299,-0.0325,-0.0333,-0.0366,-0.0366,-0.0397,-0.0357,-0.035,-0.0343,-0.0326,-0.036,-0.0354,-0.0421,-0.0421,-0.0421,0,0,-0.0017,-0.0039,-0.0042,-0.007,-0.0096,-0.0092,-0.0147,-0.0156,-0.0151,-0.0227,-0.0231,-0.0278,-0.0322,-0.0328,-0.0333,-0.0346,-0.034,-0.0341,-0.0335,-0.0322,-0.0358,-0.0351,-0.0345,-0.042,-0.042,-0.0421,0,0,0.0028,0.0002,0.0017,0.0001,-0.0026,-0.0052,-0.0049,-0.0094,-0.0111,-0.0128,-0.0178,-0.0205,-0.025,-0.0272,-0.0289,-0.0257,-0.0306,-0.0269,-0.0199,-0.0232,-0.0227,-0.0222,-0.0248,-0.0247,-0.0257,-0.0257,-0.0257,0,0.0054,0.0065,0.0019,0.0033,0.0034,-0.0025,0.0001,-0.0024,-0.0071,-0.0075,-0.0114,-0.0179,-0.0219,-0.0216,-0.0209,-0.0237,-0.0266,-0.0228,-0.0221,-0.0217,-0.0214,-0.0242,-0.0242,-0.0252,-0.0253,-0.0253,-0.0254,0,0.0109,0.0119,0.0132,0.0129,0.0123,0.0137,0.0102,0.0092,0.0057,0.0026,0.0005,-0.0064,-0.0098,-0.0118,-0.0155,-0.0145,-0.0176,-0.0214,-0.024,-0.0202,-0.0234,-0.0235,-0.0246,-0.0247,-0.0249,-0.025,0,0,0.017,0.0172,0.0177,0.0196,0.0179,0.0185,0.0197,0.0194,0.0209,0.0145,0.0155,0.0095,0.0045,0.0023,-0.0032,-0.006,-0.0069,-0.0118,-0.0122,-0.0136,-0.0138,-0.0163,-0.0168,-0.0111,-0.0111,-0.011,-0.0167,0,0.0232,0.0285,0.0267,0.0323,0.0351,0.0311,0.0326,0.0312,0.0285,0.0275,0.0202,0.0182,0.0105,0.0087,0.0048,-0.0044,-0.0069,-0.005,-0.0179,-0.0183,-0.0204,-0.0169,-0.0163,-0.0213,-0.0169,-0.0169,-0.017,0,0.0298,0.0326,0.039,0.0422,0.0431,0.0449,0.0471,0.048,0.0449,0.0427,0.0391,0.032,0.0275,0.0193,0.0074,0.0087,-0.0007,-0.0085,-0.009,-0.0143,-0.021,-0.0247,-0.0218,-0.0391,-0.0172,-0.0172,-0.0172,0,0.0369,0.0418,0.0476,0.0486,0.0504,0.0525,0.0534,0.0523,0.0553,0.0527,0.0534,0.0449,0.0411,0.0283,0.0117,0.0096,-0.0024,-0.0078,-0.0186,-0.0189,-0.0223,-0.0229,-0.0368,-0.0153,-0.0153,-0.0153,-0.0153,0,0.0445,0.0491,0.0512,0.054,0.0612,0.0595,0.0665,0.0658,0.067,0.0716,0.0618,0.0628,0.0429,0.0326,0.0165,-0.0005,0.0012,-0.0159,-0.02,-0.0191,-0.0193,-0.0378,-0.0489,-0.0155,-0.0155,-0.0154,-0.0154,0,0.0507,0.0519,0.059,0.0626,0.0645,0.0693,0.0757,0.0804,0.08,0.0857,0.0854,0.0769,0.0635,0.0432,0.0225,0.007,-0.0205,-0.0168,-0.014,-0.0176,-0.0442,-0.0547,-0.0734,-0.0801,-0.0291,-0.0292,-0.0292,0,0.054,0.0582,0.0656,0.0704,0.0722,0.0793,0.0842,0.0868,0.0932,0.0948,0.0985,0.0875,0.082,0.0512,0.0217,-0.0056,-0.0233,-0.0235,-0.0277,-0.0441,-0.059,-0.0664,-0.0712,-0.0288,-0.0288,-0.0289,-0.0289,0,0.0603,0.0627,0.0682,0.0784,0.085,0.0941,0.1017,0.1089,0.1121,0.117,0.1203,0.1159,0.0862,0.0591,0.021,0.0004,-0.0362,-0.0255,-0.0436,-0.06,-0.0679,-0.0768,-0.0267,-0.0294,-0.0294,-0.0293,-0.0293,-0.0293,0.0645,0.0698,0.077,0.087,0.0951,0.106,0.1151,0.124,0.1347,0.1428,0.1373,0.1351,0.0943,0.0427,0.0129,-0.0406,-0.0415,-0.0568,-0.0681,-0.0738,-0.081,-0.0311,-0.0382,-0.0382,-0.0382,-0.0382,-0.0382,0,0.0694,0.0755,0.0851,0.0968,0.1068,0.1104,0.1249,0.1349,0.1482,0.1556,0.1588,0.1377,0.088,0.0369,-0.0349,-0.0742,-0.0878,-0.0969,-0.108,-0.1106,-0.0669,-0.0675,-0.0798,-0.0798,-0.0798,-0.0798,-0.0797,-0.0797,0.072,0.0813,0.0864,0.1036,0.1126,0.1272,0.1361,0.1505,0.1603,0.1699,0.1696,0.1658,0.1249,-0.0062,-0.0939,-0.1146,-0.1421,-0.1508,-0.1629,-0.1349,-0.132,-0.1292,-0.1322,-0.1579,-0.158,-0.1993,-0.1998,-0.2001]}],[{"header":{"parameterUnit":"m.s-1","parameterCategory":2,"la1":30.2991,"la2":30.254,"lo1":-89.0895,"lo2":-89.0444,"dy":0.0017,"dx":0.0017,"nx":28,"ny":28,"refTime":"2025-12-31T09:00:00:Z","depth":"2","parameterNumber":2,"parameterNumberName":"U-component_of_CURRENTS"},"data":[0,0,0,0,0,0,0,0,0,0,0,0,0,0,0,0,0,0,0,0,0,0,0,0,0,0,0,0,0,0,0,0,0,0,0,0,0,0,0,0,0,0,0,0,0,0,0,0,0,0,0,0,0,0,0,0,0,0,0.2782,0.2783,0,0.2817,0.2817,0.2817,0.2834,0.2834,0.2835,0.2835,0.2876,0.2877,0.2878,0,0,0,0,0,0,0,0,0,0,0,0,0,0.2677,0.2679,0.2782,0.2783,0.2784,0.2817,0.2817,0.2817,0.2834,0.2834,0.2835,0.2835,0.2876,0.2877,0.2878,0,0,0,0,0,0,0,0,0,0,0,0,0,0.2713,0.268,0.2782,0.28,0.2803,0.2817,0.2817,0.2817,0.2834,0.2834,0.2835,0.2836,0.2876,0.2877,0.2878,0.2868,0,0,0.2881,0.2881,0,0,0,0,0,0,0,0,0.2711,0.2717,0.2797,0.2799,0.2802,0.2827,0.2795,0.2836,0.2833,0.2816,0.2835,0.2836,0.2863,0.2865,0.2862,0.287,0.2872,0.2881,0.2881,0.2882,0.2882,0,0,0,0,0,0,0,0.2709,0.2715,0.279,0.2798,0.2801,0.2789,0.2795,0.2802,0.2831,0.2818,0.282,0.2833,0.2864,0.2861,0.2864,0.2873,0.2881,0.2882,0.2882,0.2883,0.2969,0.297,0,0,0,0,0,0,0.2718,0.2713,0.2789,0.2792,0.2764,0.2791,0.2797,0.2813,0.2831,0.2836,0.2832,0.2833,0.2859,0.2862,0.2865,0.2923,0.2882,0.2883,0.2883,0.2967,0.2969,0.2971,0,0,0,0,0,0,0.2716,0.2725,0.2788,0.2757,0.2765,0.2793,0.281,0.2814,0.2832,0.2843,0.2847,0.285,0.286,0.2864,0.2913,0.2922,0.2883,0.2884,0.2965,0.2968,0.297,0.2994,0,0,0,0,0,0,0.2712,0.2723,0.2736,0.2758,0.2767,0.2821,0.281,0.2814,0.284,0.2842,0.2859,0.2862,0.2861,0.2912,0.2914,0.2922,0.2885,0.2963,0.2966,0.2969,0.2991,0.2997,0.3003,0,0,0,0,0,0.2709,0.2724,0.2736,0.2746,0.2784,0.2823,0.2827,0.2844,0.284,0.286,0.2882,0.2863,0.2934,0.2915,0.2917,0.2925,0.2961,0.2965,0.2969,0.2989,0.2996,0.3003,0,0,0,0,0,0,0.2681,0.2729,0.2742,0.2771,0.2808,0.2829,0.2844,0.2854,0.2882,0.2886,0.2889,0.2895,0.294,0.2938,0.2917,0.2963,0.2942,0.2946,0.2956,0.2963,0.2969,0.297,0.2885,0,0,0,0,0,0.2683,0.2713,0.2755,0.2781,0.2799,0.2822,0.2838,0.2856,0.2884,0.2896,0.2913,0.2931,0.2952,0.2965,0.2985,0.3009,0.301,0.3017,0.3023,0.3027,0.3033,0.3046,0.3052,0.2984,0.2984,0.2984,0,0,0.2675,0.2711,0.2724,0.2779,0.2801,0.2832,0.2833,0.287,0.2898,0.2897,0.2941,0.2956,0.2967,0.3002,0.3019,0.3003,0.3052,0.3032,0.3036,0.3039,0.3051,0.3057,0.3063,0.2986,0.2986,0.2985,0,0,0.2679,0.2713,0.2737,0.2773,0.2826,0.2847,0.2864,0.2904,0.2926,0.2971,0.2978,0.3009,0.3037,0.3049,0.3055,0.3105,0.3086,0.3108,0.3129,0.3142,0.3147,0.3152,0.3172,0.3178,0.3105,0.3105,0.3105,0,0.2667,0.2709,0.275,0.2786,0.2814,0.2857,0.2885,0.2917,0.2971,0.2986,0.2996,0.3044,0.3056,0.3086,0.311,0.3114,0.3124,0.3096,0.3147,0.3151,0.3155,0.3175,0.3181,0.3106,0.3106,0.3106,0.3106,0,0.2691,0.2726,0.2746,0.2807,0.2843,0.288,0.2932,0.2969,0.2997,0.302,0.307,0.3097,0.312,0.3129,0.3136,0.3171,0.317,0.3154,0.3122,0.3163,0.3182,0.3188,0.3109,0.3108,0.3108,0.3107,0,0,0.2654,0.2743,0.275,0.2772,0.2858,0.288,0.2941,0.2994,0.3021,0.3071,0.3103,0.3146,0.3158,0.3168,0.318,0.3197,0.324,0.3193,0.3193,0.3201,0.328,0.3245,0.3248,0.3229,0.323,0.3231,0.3284,0,0.2658,0.2711,0.2767,0.2812,0.2835,0.29,0.2947,0.3,0.3051,0.3098,0.3129,0.3171,0.3174,0.3192,0.3211,0.3241,0.3256,0.3228,0.325,0.3251,0.3204,0.3254,0.3014,0.3038,0.329,0.3291,0.3291,0,0.2655,0.2695,0.2735,0.28,0.2817,0.2854,0.2923,0.2976,0.3057,0.3101,0.3149,0.3183,0.3238,0.3228,0.3286,0.327,0.328,0.3293,0.3295,0.3256,0.3227,0.3038,0.3039,0.3301,0.33,0.33,0.3299,0,0.2585,0.2664,0.269,0.2717,0.2803,0.2828,0.2878,0.2962,0.3017,0.3109,0.3154,0.3214,0.326,0.3282,0.333,0.331,0.3388,0.3354,0.3329,0.3327,0.3125,0.3103,0.3381,0.3381,0.3381,0.338,0.338,0,0.2558,0.2576,0.2655,0.2668,0.2701,0.2775,0.2826,0.2894,0.2998,0.305,0.3147,0.3201,0.3278,0.3334,0.3348,0.3373,0.34,0.3348,0.3341,0.313,0.3109,0.3333,0.3327,0.3382,0.3382,0.3382,0.3381,0,0.2478,0.2533,0.2561,0.2641,0.2667,0.2687,0.2803,0.2835,0.2955,0.3033,0.3068,0.3213,0.3289,0.3356,0.3415,0.34,0.3421,0.3415,0.3176,0.314,0.3345,0.3339,0.3385,0.3385,0.3384,0.3384,0.3383,0,0.2444,0.245,0.2524,0.2536,0.2575,0.2627,0.266,0.2795,0.2846,0.3022,0.3044,0.3179,0.3243,0.335,0.3359,0.3386,0.3424,0.3164,0.3077,0.3358,0.3347,0.3342,0.3338,0.2821,0.2816,0.2812,0.2809,0,0.2379,0.2404,0.2426,0.2455,0.2485,0.2522,0.2587,0.2632,0.2775,0.2863,0.2969,0.3046,0.3174,0.3114,0.3185,0.3162,0.3143,0.3083,0.3427,0.2868,0.2832,0.282,0.2832,0.2772,0.2776,0.2778,0.278,0.2782,0.2322,0.2317,0.2343,0.2359,0.2388,0.2397,0.2396,0.2479,0.2555,0.2652,0.2797,0.2832,0.2901,0.2893,0.283,0.2793,0.2999,0.2853,0.2861,0.2876,0.2812,0.2778,0.2697,0.27,0.2702,0.2705,0.2707,0,0.2234,0.2235,0.2246,0.2254,0.2233,0.2288,0.2322,0.2301,0.2333,0.2456,0.2537,0.2388,0.2391,0.2446,0.2347,0.238,0.2326,0.2273,0.2161,0.2202,0.2237,0.2136,0.1844,0.184,0.1837,0.1834,0,0,0.2184,0.2148,0.2149,0.2088,0.2093,0.2033,0.2023,0.2021,0.2072,0.2076,0.2089,0.2292,0.2388,0.207,0.2059,0.192,0.2035,0.1856,0.256,0.2471,0.2501,0.26,0.2496,0,0,0,0,0]},{"header":{"parameterUnit":"m.s-1","parameterCategory":2,"la1":30.2991,"la2":30.254,"lo1":-89.0895,"lo2":-89.0444,"dy":0.0017,"dx":0.0017,"nx":28,"ny":28,"refTime":"2025-12-31T09:00:00:Z","depth":"2","parameterNumber":3,"parameterNumberName":"V-component_of_CURRENTS"},"data":[0,0,0,0,0,0,0,0,0,0,0,0,0,0,0,0,0,0,0,0,0,0,0,0,0,0,0,0,0,0,0,0,0,0,0,0,0,0,0,0,0,0,0,0,0,0,0,0,0,0,0,0,0,0,0,0,0,0,0.0117,0.0117,0,0.0066,0.0065,0.0064,0.0004,0.0003,0.0002,0.0001,-0.0079,-0.008,-0.0081,0,0,0,0,0,0,0,0,0,0,0,0,0,0.0142,0.0142,0.0117,0.0117,0.0116,0.0066,0.0065,0.0064,0.0004,0.0003,0.0002,0.0001,-0.0078,-0.008,-0.0081,0,0,0,0,0,0,0,0,0,0,0,0,0,0.0114,0.0141,0.0117,0.008,0.0077,0.0066,0.0065,0.0064,0.0004,0.0003,0.0002,0.0001,-0.0078,-0.008,-0.0082,-0.0068,0,0,-0.0088,-0.0089,0,0,0,0,0,0,0,0,0.0116,0.0113,0.0086,0.0083,0.0079,0.0041,0.0044,0.0019,0.0005,0.0031,0.0001,-0.0,-0.004,-0.0045,-0.0053,-0.0072,-0.0075,-0.0088,-0.0089,-0.009,-0.009,0,0,0,0,0,0,0,0.0118,0.0115,0.0096,0.0086,0.0081,0.0059,0.0054,0.0039,0.0002,0.0029,0.0024,0.002,-0.0043,-0.005,-0.0055,-0.0077,-0.0088,-0.009,-0.0091,-0.0092,-0.0133,-0.0133,0,0,0,0,0,0,0.0128,0.0117,0.0098,0.0095,0.0095,0.006,0.0054,0.0054,0.0003,-0.0006,0.0021,0.0018,-0.0046,-0.0053,-0.0058,-0.0062,-0.009,-0.0092,-0.0093,-0.0133,-0.0133,-0.0133,0,0,0,0,0,0,0.0129,0.0127,0.01,0.0105,0.01,0.0061,0.0061,0.0053,0.004,-0.0002,-0.0012,0.0015,-0.0048,-0.0055,-0.0083,-0.0065,-0.0093,-0.0094,-0.0133,-0.0133,-0.0133,-0.006,0,0,0,0,0,0,0.013,0.0128,0.0132,0.0106,0.01,0.0096,0.0062,0.0053,0.004,0.0034,-0.001,-0.0019,-0.0049,-0.008,-0.0085,-0.0069,-0.0096,-0.0133,-0.0133,-0.0133,-0.0062,-0.0057,-0.0053,0,0,0,0,0,0.0131,0.0149,0.0133,0.013,0.0107,0.0097,0.0092,0.0059,0.0041,0.0041,0.0001,-0.0018,-0.0083,-0.0081,-0.0088,-0.0071,-0.0133,-0.0133,-0.0133,-0.0064,-0.0058,-0.0053,0,0,0,0,0,0,0.0164,0.0144,0.0125,0.0136,0.0117,0.0087,0.0089,0.0065,0.0036,0.0029,-0.0016,-0.0027,-0.0046,-0.007,-0.0068,-0.0085,-0.011,-0.0111,-0.0056,-0.0051,-0.0046,-0.0028,-0.0098,0,0,0,0,0,0.0174,0.0179,0.0152,0.016,0.0154,0.0122,0.0114,0.0092,0.0064,0.0049,0.0015,-0.0021,-0.0046,-0.0059,-0.0087,-0.0091,-0.0122,-0.0086,-0.0081,-0.0077,-0.0068,-0.0111,-0.0109,-0.0132,-0.0132,-0.0132,0,0,0.0189,0.0178,0.018,0.0166,0.015,0.0158,0.0114,0.0108,0.011,0.0047,0.0036,-0.0005,-0.0046,-0.0058,-0.0067,-0.0077,-0.0087,-0.0077,-0.0072,-0.0066,-0.011,-0.0108,-0.0106,-0.0132,-0.0132,-0.0132,0,0,0.0228,0.0212,0.0231,0.0221,0.0203,0.0186,0.0187,0.0157,0.0137,0.0121,0.0074,0.0039,0.0006,-0.0024,-0.0041,-0.0025,-0.0063,-0.0032,0.0013,-0.0028,-0.0026,-0.0025,-0.0056,-0.0058,-0.0025,-0.0025,-0.0025,0,0.0246,0.0265,0.0234,0.0251,0.0252,0.0204,0.0227,0.0206,0.0167,0.0156,0.0126,0.0061,0.0024,0.0009,0.001,-0.0012,-0.004,-0.0002,-0.002,-0.002,-0.002,-0.0052,-0.0055,-0.0022,-0.0022,-0.0023,-0.0023,0,0.0299,0.0313,0.0326,0.033,0.0326,0.0338,0.0308,0.0295,0.0262,0.0236,0.0202,0.0139,0.0102,0.0084,0.0052,0.0039,0.0018,-0.0011,-0.003,-0.0013,-0.0048,-0.0053,-0.0017,-0.0018,-0.0019,-0.002,0,0,0.0344,0.0361,0.0365,0.0382,0.037,0.0376,0.0378,0.0367,0.0371,0.0314,0.0309,0.0248,0.0203,0.018,0.013,0.0091,0.0064,0.0048,0.0044,0.0027,-0.002,-0.0041,-0.0049,0.0031,0.0031,0.003,-0.0042,0,0.0394,0.0447,0.0438,0.0486,0.0512,0.0474,0.048,0.046,0.0429,0.041,0.0334,0.031,0.0245,0.0227,0.0178,0.0092,0.0054,0.0087,-0.0043,-0.0046,-0.0059,-0.0054,-0.0032,-0.0095,-0.0047,-0.0048,-0.0049,0,0.0451,0.0479,0.0537,0.0564,0.0571,0.0586,0.0588,0.059,0.0547,0.0522,0.0477,0.0414,0.0353,0.0291,0.0158,0.0182,0.0092,0.0019,0.0014,-0.0033,-0.0076,-0.0108,-0.0106,-0.0057,-0.0057,-0.0056,-0.0055,0,0.0502,0.055,0.06,0.061,0.0628,0.0639,0.0643,0.062,0.0638,0.0596,0.0599,0.0502,0.0462,0.0334,0.0181,0.017,0.003,-0.0006,-0.0109,-0.0112,-0.0132,-0.0135,-0.0098,-0.0098,-0.0098,-0.0098,-0.0098,0,0.0561,0.0601,0.0627,0.0653,0.0709,0.0695,0.0745,0.073,0.0728,0.076,0.0663,0.0661,0.047,0.0364,0.0214,0.0043,0.0053,-0.0098,-0.0132,-0.0106,-0.0106,-0.0106,-0.0106,-0.0101,-0.01,-0.0099,-0.0099,0,0.0608,0.0624,0.0686,0.0719,0.0736,0.0773,0.0827,0.086,0.0846,0.0884,0.0878,0.0783,0.0643,0.0448,0.024,0.0098,-0.0071,-0.0135,-0.0086,-0.0113,-0.0193,-0.0189,-0.0255,-0.0257,-0.0258,-0.0259,-0.0259,0,0.0636,0.0674,0.0741,0.0784,0.0802,0.0861,0.0902,0.0917,0.0967,0.0963,0.0989,0.087,0.0803,0.0492,0.0216,-0.0046,-0.0079,-0.0197,-0.0221,-0.0182,-0.021,-0.0203,-0.0197,-0.0219,-0.0219,-0.0219,-0.0219,0,0.0688,0.071,0.0759,0.0852,0.091,0.099,0.1054,0.1114,0.1132,0.1165,0.1176,0.112,0.0823,0.0558,0.0195,0.0012,-0.0156,-0.0212,-0.019,-0.0179,-0.0153,-0.0178,-0.0173,-0.0222,-0.0222,-0.0222,-0.0222,-0.0222,0.0722,0.0769,0.0835,0.0925,0.0997,0.1094,0.1175,0.1247,0.1332,0.1382,0.1319,0.1244,0.0938,0.0476,0.0154,-0.0186,-0.0171,-0.0285,-0.0282,-0.0279,-0.0258,-0.0236,-0.0316,-0.0316,-0.0317,-0.0317,-0.0317,0,0.0763,0.0818,0.0904,0.1009,0.1099,0.1134,0.126,0.1343,0.145,0.1477,0.1483,0.1192,0.0884,0.053,0.003,-0.0263,-0.029,-0.0361,-0.032,-0.0315,-0.0311,-0.0291,-0.0358,-0.0359,-0.036,-0.0361,0,0,0.0784,0.0866,0.0914,0.1069,0.1152,0.1284,0.1364,0.1478,0.1534,0.1568,0.1522,0.143,0.0994,0.0634,0.0225,-0.0064,-0.0124,-0.013,-0.0065,0.0038,0.0046,-0.0236,-0.0196,0,0,0,0,0]}],[{"header":{"parameterUnit":"m.s-1","parameterCategory":2,"la1":30.2991,"la2":30.254,"lo1":-89.0895,"lo2":-89.0444,"dy":0.0017,"dx":0.0017,"nx":28,"ny":28,"refTime":"2025-12-31T09:00:00:Z","depth":"4","parameterNumber":2,"parameterNumberName":"U-component_of_CURRENTS"},"data":[0,0,0,0,0,0,0,0,0,0,0,0,0,0,0,0,0,0,0,0,0,0,0,0,0,0,0,0,0,0,0,0,0,0,0,0,0,0,0,0,0,0,0,0,0,0,0,0,0,0,0,0,0,0,0,0,0,0,0.1582,0.1583,0,0.166,0.1661,0.1661,0.1727,0.1728,0.1729,0.1729,0.1833,0.1835,0.1837,0,0,0,0,0,0,0,0,0,0,0,0,0,0.153,0.153,0.1582,0.1583,0.1584,0.166,0.1661,0.1662,0.1727,0.1728,0.1729,0.173,0.1832,0.1834,0.1837,0,0,0,0,0,0,0,0,0,0,0,0,0,0.1573,0.153,0.1582,0.1626,0.1631,0.1659,0.1661,0.1662,0.1727,0.1728,0.1729,0.173,0.1831,0.1834,0.1837,0.1831,0,0,0.1846,0.1848,0,0,0,0,0,0,0,0,0.1571,0.1575,0.1619,0.1623,0.1629,0.1686,0.168,0.172,0.1726,0.1689,0.1729,0.1731,0.1786,0.1792,0.1803,0.1836,0.1841,0.1846,0.1848,0.185,0.185,0,0,0,0,0,0,0,0.1568,0.1572,0.1612,0.162,0.1626,0.1657,0.1664,0.1688,0.1729,0.1693,0.1698,0.1708,0.1789,0.1799,0.1806,0.1842,0.1846,0.1849,0.1851,0.1852,0.199,0.1992,0,0,0,0,0,0,0.1557,0.1569,0.1609,0.1614,0.1604,0.1656,0.1664,0.1665,0.1729,0.174,0.1707,0.1711,0.1794,0.1802,0.1809,0.1914,0.185,0.1852,0.1854,0.1989,0.1991,0.1993,0,0,0,0,0,0,0.1555,0.1559,0.1606,0.1595,0.1603,0.1656,0.1657,0.1666,0.1716,0.1739,0.1751,0.1751,0.1795,0.1805,0.1868,0.1914,0.1854,0.1856,0.1986,0.1989,0.1992,0.2053,0,0,0,0,0,0,0.1553,0.1558,0.1576,0.1594,0.1604,0.1644,0.1656,0.1667,0.1718,0.1725,0.178,0.1789,0.1797,0.1863,0.1871,0.1917,0.1859,0.1984,0.1988,0.1991,0.2049,0.2058,0.2066,0,0,0,0,0,0.1551,0.1563,0.1576,0.1582,0.1619,0.1646,0.1654,0.1695,0.172,0.1744,0.1788,0.1789,0.1891,0.1867,0.1875,0.1924,0.1982,0.1987,0.1991,0.2045,0.2056,0.2065,0,0,0,0,0,0,0.1555,0.1572,0.1586,0.1605,0.1634,0.1658,0.1692,0.1715,0.1767,0.1789,0.181,0.1822,0.1895,0.1899,0.1872,0.1974,0.1938,0.1944,0.1977,0.1987,0.1995,0.1999,0.1861,0,0,0,0,0,0.156,0.1576,0.1596,0.1618,0.1635,0.167,0.1696,0.1722,0.176,0.1786,0.1824,0.1868,0.1911,0.1942,0.1974,0.2027,0.2023,0.2065,0.2073,0.208,0.2089,0.2115,0.2126,0.2007,0.2007,0.2007,0,0,0.1568,0.1582,0.1592,0.1621,0.1651,0.1681,0.169,0.1737,0.1778,0.1788,0.1869,0.1901,0.1932,0.1996,0.2029,0.2011,0.2113,0.2085,0.2091,0.2097,0.2121,0.2132,0.2143,0.201,0.2009,0.2009,0,0,0.1582,0.1606,0.1623,0.1649,0.1696,0.1716,0.1737,0.1781,0.1823,0.1886,0.1913,0.1974,0.2033,0.2069,0.2092,0.2165,0.2156,0.2182,0.2231,0.2256,0.2266,0.2275,0.2286,0.2295,0.2187,0.2187,0.2187,0,0.16,0.1616,0.1636,0.1663,0.1697,0.1735,0.1771,0.1812,0.1875,0.1917,0.1923,0.2037,0.2067,0.2148,0.2181,0.2186,0.2191,0.2189,0.2266,0.2275,0.2282,0.2291,0.23,0.2191,0.219,0.219,0.2189,0,0.1612,0.1648,0.1666,0.1709,0.1748,0.1787,0.1837,0.1894,0.1947,0.1984,0.2083,0.2123,0.219,0.2214,0.2225,0.2307,0.2291,0.2271,0.2237,0.2298,0.2304,0.2312,0.2196,0.2194,0.2193,0.2192,0,0,0.1599,0.1662,0.1674,0.1707,0.178,0.1806,0.1889,0.1964,0.2023,0.2092,0.2168,0.2255,0.2283,0.2311,0.2337,0.2368,0.2432,0.2353,0.2353,0.2357,0.2484,0.2342,0.2337,0.2427,0.2429,0.243,0.2466,0,0.1613,0.1661,0.1698,0.1767,0.18,0.1871,0.1938,0.2015,0.2086,0.2166,0.2231,0.2309,0.2317,0.2362,0.2399,0.2428,0.2457,0.2423,0.2431,0.2431,0.2291,0.2343,0.2436,0.2472,0.2474,0.2475,0.2476,0,0.161,0.1647,0.171,0.1798,0.1822,0.1876,0.1994,0.2059,0.2176,0.2234,0.2323,0.2369,0.2461,0.2439,0.2518,0.2498,0.2505,0.251,0.2511,0.2362,0.2304,0.24,0.2491,0.249,0.2489,0.2488,0.2487,0,0.1571,0.1656,0.1709,0.1739,0.184,0.1903,0.1971,0.2088,0.2161,0.2287,0.2349,0.2441,0.2505,0.2533,0.2568,0.2552,0.2624,0.2592,0.2467,0.2457,0.2546,0.2536,0.2635,0.2635,0.2635,0.2634,0.2634,0,0.155,0.1597,0.1699,0.1725,0.1807,0.1889,0.1992,0.2074,0.2202,0.2275,0.2385,0.2444,0.2534,0.2587,0.2591,0.2556,0.2644,0.2484,0.246,0.2571,0.2564,0.2551,0.2541,0.2636,0.2636,0.2635,0.2635,0,0.1491,0.1557,0.1624,0.1742,0.1789,0.1848,0.2002,0.2061,0.2197,0.2297,0.2345,0.2479,0.2534,0.2596,0.2643,0.2574,0.2558,0.2523,0.2648,0.2629,0.2366,0.236,0.2373,0.2368,0.2364,0.2361,0.2358,0,0.1457,0.1487,0.1621,0.1665,0.1727,0.1832,0.1898,0.2047,0.2108,0.2289,0.2315,0.2438,0.2501,0.2452,0.2526,0.2518,0.2492,0.2464,0.2405,0.2366,0.2342,0.2341,0.234,0.2352,0.2351,0.235,0.2349,0,0.1397,0.1461,0.1513,0.1605,0.1683,0.1758,0.1863,0.1899,0.2051,0.2195,0.2231,0.2265,0.2323,0.2349,0.237,0.2359,0.2467,0.2422,0.2429,0.2374,0.2341,0.2321,0.2324,0.2335,0.2337,0.2339,0.2339,0,0.1357,0.1377,0.1456,0.1523,0.1614,0.1649,0.172,0.1781,0.1862,0.2051,0.2052,0.2174,0.229,0.2268,0.2283,0.2269,0.2228,0.2145,0.2166,0.2182,0.2104,0.2033,0.1918,0,0,0,0,0,0.1305,0.1311,0.1366,0.1425,0.1508,0.1559,0.1677,0.1746,0.1892,0.1865,0.1955,0.1995,0.2024,0.2091,0.2036,0.2204,0.2241,0.2131,0.2157,0.2259,0.2275,0.2202,0,0,0,0,0,0,0.1265,0.1309,0.1324,0.1327,0.1347,0.1419,0.1485,0.1583,0.1578,0.1732,0.1757,0.1875,0.1934,0.203,0.1996,0.2017,0.1992,0.2214,0.2209,0.225,0.2265,0.2278,0.2207,0,0,0,0,0]},{"header":{"parameterUnit":"m.s-1","parameterCategory":2,"la1":30.2991,"la2":30.254,"lo1":-89.0895,"lo2":-89.0444,"dy":0.0017,"dx":0.0017,"nx":28,"ny":28,"refTime":"2025-12-31T09:00:00:Z","depth":"4","parameterNumber":3,"parameterNumberName":"V-component_of_CURRENTS"},"data":[0,0,0,0,0,0,0,0,0,0,0,0,0,0,0,0,0,0,0,0,0,0,0,0,0,0,0,0,0,0,0,0,0,0,0,0,0,0,0,0,0,0,0,0,0,0,0,0,0,0,0,0,0,0,0,0,0,0,0.0223,0.0223,0,0.0193,0.0192,0.0192,0.0163,0.0162,0.0162,0.0162,0.0115,0.0115,0.0114,0,0,0,0,0,0,0,0,0,0,0,0,0,0.0221,0.0221,0.0224,0.0223,0.0223,0.0193,0.0192,0.0192,0.0163,0.0162,0.0162,0.0162,0.0116,0.0115,0.0114,0,0,0,0,0,0,0,0,0,0,0,0,0,0.0209,0.0221,0.0224,0.0205,0.0203,0.0193,0.0192,0.0192,0.0163,0.0162,0.0162,0.0161,0.0116,0.0115,0.0113,0.0115,0,0,0.0109,0.0109,0,0,0,0,0,0,0,0,0.021,0.0209,0.0208,0.0206,0.0204,0.0181,0.0174,0.0166,0.0163,0.0178,0.0162,0.0161,0.0137,0.0133,0.0129,0.0113,0.0111,0.0109,0.0108,0.0108,0.0107,0,0,0,0,0,0,0,0.0211,0.021,0.0211,0.0208,0.0205,0.0186,0.0184,0.0172,0.016,0.0177,0.0174,0.0171,0.0135,0.013,0.0127,0.0111,0.0109,0.0108,0.0107,0.0107,0.0076,0.0076,0,0,0,0,0,0,0.0218,0.0211,0.0212,0.021,0.0206,0.0186,0.0184,0.0189,0.016,0.0156,0.0172,0.017,0.0133,0.0129,0.0126,0.0121,0.0108,0.0106,0.0106,0.0076,0.0076,0.0076,0,0,0,0,0,0,0.0218,0.0218,0.0213,0.021,0.0208,0.0187,0.0193,0.0189,0.0185,0.0157,0.0152,0.0173,0.0132,0.0128,0.0118,0.0119,0.0106,0.0105,0.0076,0.0076,0.0076,0.0115,0,0,0,0,0,0,0.0218,0.0219,0.0226,0.0211,0.0208,0.0214,0.0193,0.0188,0.0184,0.0181,0.0156,0.0151,0.0131,0.012,0.0116,0.0117,0.0103,0.0076,0.0076,0.0076,0.0114,0.0117,0.0119,0,0,0,0,0,0.0218,0.0232,0.0227,0.0227,0.0219,0.0214,0.0211,0.0194,0.0185,0.0188,0.0168,0.0152,0.0117,0.0119,0.0115,0.0115,0.0076,0.0076,0.0076,0.0113,0.0116,0.0119,0,0,0,0,0,0,0.0233,0.023,0.0224,0.0236,0.0228,0.0209,0.0211,0.02,0.0187,0.0185,0.0157,0.0151,0.0141,0.0124,0.0127,0.0105,0.0092,0.0091,0.0121,0.0124,0.0127,0.013,0.0102,0,0,0,0,0,0.0241,0.0253,0.0241,0.0251,0.0249,0.0232,0.0228,0.0218,0.0204,0.0198,0.0179,0.0157,0.0138,0.0129,0.0111,0.0105,0.0074,0.01,0.0102,0.0105,0.0103,0.0055,0.0053,0.0076,0.0076,0.0076,0,0,0.025,0.025,0.0256,0.0255,0.0248,0.0253,0.0228,0.0229,0.023,0.0196,0.0193,0.0168,0.0138,0.0127,0.0121,0.0114,0.0083,0.0105,0.0107,0.0104,0.0054,0.0052,0.005,0.0076,0.0076,0.0076,0,0,0.0274,0.0273,0.029,0.0288,0.0282,0.0272,0.0275,0.0261,0.0251,0.0247,0.0216,0.0192,0.0174,0.0143,0.0127,0.0133,0.0099,0.013,0.0145,0.0098,0.0096,0.0093,0.0058,0.0052,0.0131,0.0131,0.0131,0,0.0283,0.0304,0.0293,0.0306,0.0308,0.0285,0.0299,0.0287,0.0271,0.0261,0.0253,0.0202,0.0178,0.0147,0.0148,0.0138,0.0111,0.0139,0.0101,0.0098,0.0095,0.0059,0.0052,0.0133,0.0132,0.0132,0.0132,0,0.0316,0.0333,0.0342,0.0352,0.0353,0.0362,0.0346,0.0339,0.0325,0.0307,0.0278,0.0237,0.0206,0.0191,0.0174,0.0138,0.0127,0.0111,0.0095,0.0095,0.0058,0.005,0.0135,0.0135,0.0134,0.0134,0,0,0.0339,0.0362,0.0366,0.0381,0.0379,0.0385,0.0383,0.0372,0.037,0.0338,0.0324,0.0276,0.0248,0.0227,0.0191,0.0146,0.0103,0.0125,0.0122,0.0094,0.0007,0.0009,0.0001,0.0082,0.0081,0.008,-0.0007,0,0.0367,0.0406,0.0407,0.0441,0.0458,0.0438,0.0439,0.0424,0.0405,0.0385,0.0323,0.0303,0.0263,0.025,0.0197,0.0129,0.0082,0.0128,0.0008,0.0005,0.0009,-0.0009,0.0076,-0.0013,-0.0015,-0.0017,-0.0018,0,0.0399,0.0422,0.0464,0.0486,0.0491,0.0505,0.0502,0.0501,0.046,0.0443,0.0398,0.0357,0.0288,0.0258,0.0128,0.0161,0.0089,0.0029,0.0024,0.0006,-0.0008,-0.0017,-0.0033,-0.0032,-0.0031,-0.003,-0.0029,0,0.0422,0.0461,0.0498,0.0508,0.0526,0.0536,0.0541,0.0519,0.0527,0.0482,0.0481,0.0387,0.0351,0.024,0.0123,0.0126,-0.0022,-0.0035,-0.0106,-0.0106,-0.0099,-0.0096,-0.0134,-0.0134,-0.0133,-0.0133,-0.0133,0,0.045,0.0481,0.0517,0.0537,0.0579,0.0574,0.0608,0.0591,0.0582,0.0594,0.0518,0.0499,0.0346,0.0249,0.0132,-0.0009,-0.0018,-0.011,-0.0133,-0.0079,-0.0073,-0.0105,-0.0101,-0.0136,-0.0136,-0.0135,-0.0135,0,0.047,0.0493,0.054,0.0576,0.0595,0.0623,0.0671,0.0687,0.0672,0.0684,0.0676,0.0582,0.0454,0.0298,0.0115,0.0015,-0.0127,-0.0175,-0.0098,-0.0115,-0.0183,-0.0175,-0.0265,-0.0266,-0.0266,-0.0267,-0.0267,0,0.0482,0.0511,0.0578,0.0615,0.0639,0.0689,0.0722,0.073,0.0756,0.0734,0.0739,0.0631,0.0549,0.0298,0.0122,-0.0109,-0.0142,-0.0218,-0.0214,-0.0185,-0.0199,-0.019,-0.0182,-0.0268,-0.0269,-0.0269,-0.0269,0,0.0502,0.0531,0.0571,0.0653,0.0705,0.0768,0.0819,0.0846,0.085,0.0844,0.0795,0.0662,0.0514,0.0308,0.0128,-0.0039,-0.0173,-0.0226,-0.0225,-0.0222,-0.019,-0.0201,-0.0192,-0.0271,-0.0271,-0.0271,-0.027,0,0.0518,0.0551,0.0611,0.0683,0.0754,0.0818,0.0848,0.0875,0.0896,0.0873,0.0853,0.0691,0.0595,0.0344,0.0177,0.0013,-0.0033,-0.009,-0.0098,-0.0098,-0.0027,0.004,0.0003,0,0,0,0,0,0.0528,0.0568,0.0636,0.0713,0.0787,0.0836,0.0897,0.0918,0.0929,0.0906,0.0885,0.0749,0.0498,0.0385,0.0223,0.0152,-0.007,-0.0047,-0.0143,-0.0283,-0.0281,-0.0226,0,0,0,0,0,0,0.0533,0.0595,0.0632,0.0726,0.079,0.0872,0.0916,0.0929,0.0918,0.0905,0.0778,0.0711,0.0469,0.0601,0.0223,0.0171,0.0086,-0.0163,-0.0167,-0.0285,-0.0282,-0.028,-0.0224,0,0,0,0,0]}]]